Welcome to the New NWS' Forecast!
Most changes are behind the scenes, but click here for differences you might notice.
Latest weather observations around

Tuscaloosa Regional Airport (KTCL)

Using International System of Units (Switch to English Units)
Date/ Time (CDT) Wind (kph) Vis. (km) Weather Sky Cond. Temp (°C) Rel. Humidity Wind Chill (°C) Heat Index (°C) Pressure Precip. (cm)
Air Dwpt 6 hour Altimeter (hPa) Sea level (hPa) 1 hr 3 hr 6 hr
Max Min
Aug 15 21:53 SE 11 16.09 Clear CLR 29 22     65%   33 1017.3 1016.9      
Aug 15 20:53 ESE 9 16.09 Clear CLR 29 22     63%   32 1016.9 1016.5      
Aug 15 19:53 SE 5 16.09 Clear CLR 29 23     70%   32 1016.6 1016.3      
Aug 15 18:53 S 9 16.09 Clear CLR 32 22     55%   35 1016.3 1016.1      
Aug 15 17:53 SW 8 16.09 Clear CLR 33 23     54%   38 1016.3 1015.8      
Aug 15 16:53 S 13 16.09 Mostly Clear FEW065 34 20     43%   37 1016.3 1015.8      
Aug 15 15:53 S 11 16.09 Mostly Cloudy BKN060 BKN070 36 22     45%   40 1016.6 1016.2      
Aug 15 14:53 WNW 9 16.09 Mostly Cloudy BKN055 BKN075 35 23     49%   40 1016.9 1016.6      
Aug 15 13:53 SW 11 14.48 Mostly Clear FEW048 34 23     52%   39 1017.6 1017.2      
Aug 15 12:53 SW 13 16.09 Clear CLR 34 23     52%   39 1018 1017.7      
Aug 15 11:53 W 5 14.48 Clear CLR 32 24     63%   37 1018.3 1018.1      
Aug 15 10:53 S 11 14.48 Clear CLR 31 23     65%   35 1018.6 1018.4      
Aug 15 09:53 S 9 14.48 Clear CLR 29 23     70%   34 1018.6 1018.3      
Aug 15 08:53 Calm 12.87 Clear CLR 27 23     79%   29 1018.6 1018.2      
Aug 15 07:53 Calm 9.66 Fog/Mist CLR 24 22     88%   25 1018 1017.8      
Aug 15 06:53 Calm 9.66 Fog/Mist CLR 23 22     91%   24 1017.6 1017.3      
Aug 15 05:53 Calm 8.05 Fog/Mist CLR 22 21     93%   23 1016.9 1016.8      
Aug 15 04:53 Calm 12.87 Clear CLR 23 22     94%   24 1016.9 1016.8      
Aug 15 03:53 Calm 9.66 Fog/Mist CLR 23 22     91%   24 1016.9 1016.5      
Aug 15 02:53 Calm 11.27 Clear CLR 23 22     91%   24 1016.9 1016.7      
Aug 15 01:53 Calm 12.87 Clear CLR 24 22     90%   25 1017.3 1017      
Aug 15 00:53 Calm 14.48 Clear CLR 24 22     88%   25 1017.3 1016.9      
Aug 14 23:53 S 5 14.48 Clear CLR 26 23     85%   26 1017.3 1016.9      
Aug 14 22:53 S 5 14.48 Clear CLR 26 23     85%   26 1016.9 1016.8      
Aug 14 21:53 S 5 16.09 Clear CLR 27 23     79%   29 1016.9 1016.5      
Aug 14 20:53 Calm 14.48 Clear CLR 27 24     87%   30 1015.9 1015.5      
Aug 14 19:53 Calm 16.09 Clear CLR 28 24     79%   32 1015.6 1015.1      
Aug 14 18:53 Calm 16.09 Clear CLR 31 24     70%   36 1015.6 1015.2      
Aug 14 17:53 WSW 8 16.09 Clear CLR 33 22     52%   37 1015.2 1015.1      
Aug 14 16:53 W 8 16.09 Clear CLR 34 21     46%   37 1015.6 1015.2      
Aug 14 15:53 WSW 9 16.09 Clear CLR 34 19     41%   37 1015.6 1015.2      
Aug 14 14:53 SW 11 16.09 Clear CLR 34 19     43%   36 1015.9 1015.7      
Aug 14 13:53 WSW 8 16.09 Clear CLR 34 17     37%   35 1016.6 1016.3      
Aug 14 12:53 WNW 11 16.09 Clear CLR 33 19     44%   35 1017.3 1016.9      
Aug 14 11:53 ESE 5 14.48 Clear CLR 32 19     47%   34 1017.6 1017.1      
Aug 14 10:53 Calm 12.87 Clear CLR 31 22     57%   34 1017.6 1017.5      
Aug 14 09:53 Calm 12.87 Clear CLR 27 22     74%   30 1017.6 1017.3      
Aug 14 07:53 NW 5 8.05 Fog/Mist CLR 24 22     90%   25 1017.6 1017.2      
Aug 14 06:53 Calm 8.05 Fog/Mist CLR 23 22     94%   24 1017.3 1016.9      
Aug 14 05:53 Calm 9.66 Fog/Mist SCT060 23 22     94%   24 1016.6 1016.4      
Aug 14 04:53 WNW 5 9.66 Fog/Mist CLR 23 22     94%   24 1016.3 1016      
Aug 14 03:53 Calm 11.27 Clear CLR 23 22     94%   24 1016.3 1015.8      
Aug 14 02:53 Calm 9.66 Fog/Mist CLR 23 22     94%   24 1015.9 1015.7      
Aug 14 01:53 Calm 12.87 Clear CLR 24 22     88%   25 1016.3 1016      
Aug 14 00:53 WNW 5 12.87 Clear CLR 24 22     90%   25 1016.9 1016.5      
Aug 13 22:53 NNE 5 16.09 Clear CLR 26 22     82%   26 1016.6 1016.4      
Aug 13 21:53 Calm 16.09 Clear CLR 27 22     76%   29 1016.6 1016.4      
Aug 13 20:53 Calm 14.48 Clear CLR 26 24     90%   27 1016.3 1016.1      
Aug 13 19:53 Calm 16.09 Clear CLR 27 23     82%   29 1016.3 1015.8      
Aug 13 18:53 WSW 5 16.09 Clear CLR 28 23     72%   32 1015.6 1015.4      
Aug 13 17:53 WSW 11 16.09 Clear CLR 29 22     67%   32 1015.6 1015.3      
Aug 13 16:53 W 13 16.09 Mostly Cloudy FEW055 SCT070 BKN100 29 22     65%   33 1015.6 1015.4      
Aug 13 15:53 SW 9 16.09 Clear CLR 34 22     49%   38 1015.6 1015.3      
Aug 13 14:53 Calm 16.09 Clear CLR 35 22     48%   40 1015.9 1015.6      
Aug 13 13:53 5 14.48 Clear CLR 34 22     51%   38 1016.6 1016.4      
Aug 13 12:53 SSW 9 14.48 Clear CLR 33 23     56%   38 1017.6 1017.4      
Aug 13 11:53 Calm 14.48 Clear CLR 32 22     57%   36 1018.3 1017.9      
Aug 13 10:53 Calm 14.48 Clear CLR 31 23     63%   35 1018.3 1018      
Aug 13 09:53 Calm 14.48 Clear CLR 28 23     72%   32 1018.3 1018      
Aug 13 06:53 Calm 9.66 Fog/Mist CLR 23 21     90%   23 1018 1017.5      
Aug 13 05:53 Calm 9.66 Fog/Mist CLR 22 21     93%   23 1017.6 1017.2      
Aug 13 01:53 Calm 6.44 Fog/Mist CLR 23 22     96%   24 1017.6 1017.1      
Aug 13 01:45 Calm 4.02 Fog/Mist CLR 23 22     94%   24 1017.6        
Aug 13 00:53 Calm 6.44 Fog/Mist CLR 23 22     94%   24 1018 1017.5     0
Aug 13 00:28 Calm 8.05 Fog/Mist CLR 23 22     94%   24 1018.3        
Aug 13 00:20 Calm 4.02 Fog/Mist CLR 23 23     97%   24 1018.3        
Aug 12 22:16 WNW 5 16.09 Light Rain FEW041 SCT075 OVC090 26 22     82%   26 1018.6   0    
Aug 12 22:07 Calm 3.22 Light Rain FEW041 BKN075 OVC100 26 22     82%   26 1018.6   0    
Aug 12 20:53 Calm 16.09 Mostly Clear FEW060 27 23     79%   29 1017.6 1017.4      
May 14 13:53 NE 9 16.09 Clear CLR 34 16     34%   35 1015.9 1015.6      
May 13 19:53 Calm 16.09 Clear CLR 27 21     69%   28 1016.3 1016.1      
May 12 07:48 Calm 3.22 Clear   21 17     78%     1021.7        
May 11 23:53 Calm 14.48 Clear CLR 19 18     96%     1018.6 1018.3      
Jun 11 13:53 11 16.09 Mostly Clear FEW050 32 19     47%   34 1019.3 1018.9      
Jun 11 12:53 SE 11 16.09 Mostly Clear FEW048 31 19     50%   33 1019.7 1019.4      
Jun 10 23:53 NNE 5 16.09 Clear CLR 22 19     84%   22 1018.3 1017.8 0    
Jun 10 11:53 5 16.09 Partly Cloudy SCT080 30 16     42%   30 1018.3 1017.9      
Jun 10 09:53 9 16.09 Clear CLR 27 17     53%   28 1018.3 1018.1      
Jun 09 15:53 SW 11 16.09 Clear CLR 28 14     44%   28 1013.9 1013.7      
Jun 09 01:53 Calm 12.87 Clear CLR 16 15     93%     1013.2 1012.9      
Jun 08 10:53 N 13 16.09 Clear CLR 24 15     56%   24 1013.9 1013.5      
Jun 06 03:53 NE 5 16.09 Cloudy OVC007 22 21     93%   23 1008.1 1007.9      
Jun 05 21:43 NE 8 16.09 Cloudy BKN009 OVC023 22 22     97%   23 1009.2   0